Time,TemperatureF,DewpointF,PressureIn,WindDirection,WindDirectionDegrees,WindSpeedMPH,WindSpeedGustMPH,Humidity,HourlyPrecipIn,Conditions,Clouds,dailyrainin,SoftwareType,DateUTC
2013-06-18 00:10:00,69.7,64.0,29.84,SW,226,5.0,6.0,83,0.00,,,0.00,weatherlink.com 1.10,2013-06-18 05:10:00,
2013-06-18 00:25:00,69.1,65.0,29.84,SW,231,5.0,8.0,85,0.00,,,0.00,weatherlink.com 1.10,2013-06-18 05:25:00,
2013-06-18 00:40:00,68.8,65.0,29.84,WSW,243,6.0,9.0,86,0.00,,,0.00,weatherlink.com 1.10,2013-06-18 05:40:00,
2013-06-18 00:55:00,68.4,65.0,29.84,WSW,246,5.0,7.0,88,0.00,,,0.00,weatherlink.com 1.10,2013-06-18 05:55:00,
2013-06-18 01:10:00,67.9,65.0,29.85,West,261,3.0,5.0,89,0.00,,,0.00,weatherlink.com 1.10,2013-06-18 06:10:00,
2013-06-18 01:25:00,67.7,65.0,29.85,West,269,4.0,6.0,90,0.00,,,0.00,weatherlink.com 1.10,2013-06-18 06:25:00,
2013-06-18 01:40:00,67.4,65.0,29.85,West,270,3.0,6.0,91,0.00,,,0.00,weatherlink.com 1.10,2013-06-18 06:40:00,
2013-06-18 01:55:00,66.9,64.0,29.85,NNE,27,0.0,0.0,91,0.00,,,0.00,weatherlink.com 1.10,2013-06-18 06:55:00,
2013-06-18 02:11:00,66.2,64.0,29.85,SW,231,0.0,1.0,92,0.00,,,0.00,weatherlink.com 1.10,2013-06-18 07:11:00,
2013-06-18 02:26:00,65.4,63.0,29.85,West,272,0.0,1.0,93,0.00,,,0.00,weatherlink.com 1.10,2013-06-18 07:26:00,
2013-06-18 02:41:00,64.0,62.0,29.85,West,260,0.0,0.0,92,0.00,,,0.00,weatherlink.com 1.10,2013-06-18 07:41:00,
2013-06-18 02:56:00,63.3,62.0,29.85,WSW,241,0.0,0.0,94,0.00,,,0.00,weatherlink.com 1.10,2013-06-18 07:56:00,
2013-06-18 03:11:00,63.7,62.0,29.85,West,267,1.0,2.0,94,0.00,,,0.00,weatherlink.com 1.10,2013-06-18 08:11:00,
2013-06-18 03:26:00,63.9,63.0,29.85,WNW,284,1.0,2.0,95,0.00,,,0.00,weatherlink.com 1.10,2013-06-18 08:26:00,
2013-06-18 03:41:00,64.2,63.0,29.84,WNW,283,0.0,1.0,95,0.00,,,0.00,weatherlink.com 1.10,2013-06-18 08:41:00,
2013-06-18 03:56:00,64.2,63.0,29.84,West,278,1.0,2.0,94,0.00,,,0.00,weatherlink.com 1.10,2013-06-18 08:56:00,
2013-06-18 04:11:00,63.9,63.0,29.85,SW,222,0.0,1.0,95,0.00,,,0.00,weatherlink.com 1.10,2013-06-18 09:11:00,
2013-06-18 04:26:00,64.1,63.0,29.86,ENE,77,0.0,2.0,96,0.00,,,0.00,weatherlink.com 1.10,2013-06-18 09:26:00,
2013-06-18 04:41:00,64.1,63.0,29.86,ENE,77,0.0,0.0,95,0.00,,,0.00,weatherlink.com 1.10,2013-06-18 09:41:00,
2013-06-18 04:56:00,63.4,62.0,29.86,NNW,336,0.0,0.0,95,0.00,,,0.00,weatherlink.com 1.10,2013-06-18 09:56:00,
2013-06-18 05:11:00,62.8,62.0,29.87,West,264,1.0,1.0,96,0.00,,,0.00,weatherlink.com 1.10,2013-06-18 10:11:00,
2013-06-18 05:26:00,62.3,61.0,29.87,West,264,0.0,1.0,96,0.00,,,0.00,weatherlink.com 1.10,2013-06-18 10:26:00,
2013-06-18 05:41:00,62.3,62.0,29.88,ENE,61,0.0,2.0,97,0.00,,,0.00,weatherlink.com 1.10,2013-06-18 10:41:00,
2013-06-18 05:56:00,63.4,63.0,29.89,NE,56,0.0,1.0,97,0.00,,,0.00,weatherlink.com 1.10,2013-06-18 10:56:00,
2013-06-18 06:11:00,63.2,61.0,29.89,NNE,27,2.0,4.0,92,0.00,,,0.00,weatherlink.com 1.10,2013-06-18 11:11:00,
2013-06-18 06:26:00,63.3,60.0,29.90,NE,37,2.0,4.0,90,0.00,,,0.00,weatherlink.com 1.10,2013-06-18 11:26:00,
2013-06-18 06:41:00,63.6,60.0,29.90,ENE,71,3.0,3.0,89,0.00,,,0.00,weatherlink.com 1.10,2013-06-18 11:41:00,
2013-06-18 06:56:00,63.7,61.0,29.91,ENE,63,1.0,3.0,89,0.00,,,0.00,weatherlink.com 1.10,2013-06-18 11:56:00,
2013-06-18 07:11:00,65.3,62.0,29.91,NE,56,1.0,2.0,88,0.00,,,0.00,weatherlink.com 1.10,2013-06-18 12:11:00,
2013-06-18 07:26:00,65.2,61.0,29.91,ENE,60,1.0,4.0,86,0.00,,,0.00,weatherlink.com 1.10,2013-06-18 12:26:00,
2013-06-18 07:41:00,67.0,62.0,29.91,ENE,64,3.0,3.0,83,0.00,,,0.00,weatherlink.com 1.10,2013-06-18 12:41:00,
2013-06-18 07:56:00,68.2,61.0,29.90,NE,44,0.0,4.0,79,0.00,,,0.00,weatherlink.com 1.10,2013-06-18 12:56:00,
2013-06-18 08:11:00,69.3,61.0,29.90,NE,56,2.0,6.0,76,0.00,,,0.00,weatherlink.com 1.10,2013-06-18 13:11:00,
2013-06-18 08:26:00,69.8,62.0,29.90,ENE,66,8.0,10.0,75,0.00,,,0.00,weatherlink.com 1.10,2013-06-18 13:26:00,
2013-06-18 08:41:00,70.8,61.0,29.90,NNE,30,7.0,7.0,72,0.00,,,0.00,weatherlink.com 1.10,2013-06-18 13:41:00,
2013-06-18 08:56:00,71.7,62.0,29.90,NE,44,4.0,6.0,71,0.00,,,0.00,weatherlink.com 1.10,2013-06-18 13:56:00,
2013-06-18 09:11:00,72.3,61.0,29.90,ENE,64,5.0,9.0,68,0.00,,,0.00,weatherlink.com 1.10,2013-06-18 14:11:00,
2013-06-18 09:26:00,73.0,61.0,29.90,NE,39,11.0,11.0,66,0.00,,,0.00,weatherlink.com 1.10,2013-06-18 14:26:00,
2013-06-18 09:42:00,73.9,61.0,29.90,NE,56,9.0,14.0,64,0.00,,,0.00,weatherlink.com 1.10,2013-06-18 14:42:00,
2013-06-18 09:57:00,74.4,61.0,29.90,NE,51,7.0,9.0,64,0.00,,,0.00,weatherlink.com 1.10,2013-06-18 14:57:00,
2013-06-18 10:12:00,74.8,60.0,29.90,NNE,32,5.0,11.0,61,0.00,,,0.00,weatherlink.com 1.10,2013-06-18 15:12:00,
2013-06-18 10:27:00,75.7,62.0,29.90,NE,43,4.0,10.0,63,0.00,,,0.00,weatherlink.com 1.10,2013-06-18 15:27:00,
2013-06-18 10:42:00,76.1,61.0,29.90,ENE,68,8.0,13.0,60,0.00,,,0.00,weatherlink.com 1.10,2013-06-18 15:42:00,
2013-06-18 10:57:00,77.3,61.0,29.90,NE,50,8.0,10.0,58,0.00,,,0.00,weatherlink.com 1.10,2013-06-18 15:57:00,
2013-06-18 11:12:00,78.1,62.0,29.91,ENE,66,6.0,11.0,57,0.00,,,0.00,weatherlink.com 1.10,2013-06-18 16:12:00,
2013-06-18 11:27:00,78.5,62.0,29.91,NE,37,8.0,11.0,57,0.00,,,0.00,weatherlink.com 1.10,2013-06-18 16:27:00,
2013-06-18 11:42:00,78.9,60.0,29.90,ENE,73,6.0,13.0,53,0.00,,,0.00,weatherlink.com 1.10,2013-06-18 16:42:00,
2013-06-18 11:57:00,79.6,61.0,29.91,East,82,6.0,14.0,54,0.00,,,0.00,weatherlink.com 1.10,2013-06-18 16:57:00,
2013-06-18 12:12:00,79.9,61.0,29.90,ENE,70,5.0,14.0,53,0.00,,,0.00,weatherlink.com 1.10,2013-06-18 17:12:00,
2013-06-18 12:27:00,80.5,61.0,29.90,ENE,63,6.0,11.0,51,0.00,,,0.00,weatherlink.com 1.10,2013-06-18 17:27:00,
2013-06-18 12:42:00,80.9,62.0,29.91,ENE,60,2.0,12.0,53,0.00,,,0.00,weatherlink.com 1.10,2013-06-18 17:42:00,
2013-06-18 12:57:00,81.0,62.0,29.91,NE,49,3.0,12.0,52,0.00,,,0.00,weatherlink.com 1.10,2013-06-18 17:57:00,
2013-06-18 13:12:00,81.6,63.0,29.91,ENE,70,3.0,10.0,53,0.00,,,0.00,weatherlink.com 1.10,2013-06-18 18:12:00,
2013-06-18 13:27:00,82.3,62.0,29.91,ENE,64,4.0,10.0,50,0.00,,,0.00,weatherlink.com 1.10,2013-06-18 18:27:00,
2013-06-18 13:42:00,81.9,61.0,29.90,East,84,10.0,10.0,50,0.00,,,0.00,weatherlink.com 1.10,2013-06-18 18:42:00,
2013-06-18 13:57:00,81.9,61.0,29.90,NE,51,4.0,11.0,49,0.00,,,0.00,weatherlink.com 1.10,2013-06-18 18:57:00,
2013-06-18 14:55:00,82.0,60.0,29.89,NE,56,4.0,9.0,48,0.00,,,0.00,weatherlink.com 1.10,2013-06-18 19:55:00,
2013-06-18 15:12:00,82.7,62.0,29.89,NE,43,1.0,10.0,50,0.00,,,0.00,weatherlink.com 1.10,2013-06-18 20:12:00,
2013-06-18 15:27:00,82.6,61.0,29.89,ENE,66,5.0,10.0,48,0.00,,,0.00,weatherlink.com 1.10,2013-06-18 20:27:00,
2013-06-18 15:42:00,82.7,62.0,29.89,NNE,18,8.0,10.0,49,0.00,,,0.00,weatherlink.com 1.10,2013-06-18 20:42:00,
2013-06-18 16:12:00,81.6,61.0,29.89,North,352,0.0,8.0,50,0.00,,,0.00,weatherlink.com 1.10,2013-06-18 21:12:00,
2013-06-18 16:27:00,81.6,61.0,29.89,ENE,60,3.0,9.0,49,0.00,,,0.00,weatherlink.com 1.10,2013-06-18 21:27:00,
2013-06-18 16:42:00,80.9,59.0,29.89,NE,36,0.0,8.0,48,0.00,,,0.00,weatherlink.com 1.10,2013-06-18 21:42:00,
2013-06-18 17:12:00,79.2,59.0,29.89,East,81,6.0,10.0,50,0.00,,,0.00,weatherlink.com 1.10,2013-06-18 22:12:00,
2013-06-18 17:27:00,78.6,60.0,29.89,ENE,61,4.0,9.0,54,0.00,,,0.00,weatherlink.com 1.10,2013-06-18 22:27:00,
2013-06-18 17:42:00,77.8,58.0,29.90,NW,304,2.0,10.0,51,0.00,,,0.00,weatherlink.com 1.10,2013-06-18 22:42:00,
2013-06-18 17:57:00,77.3,58.0,29.90,NE,36,8.0,9.0,51,0.00,,,0.00,weatherlink.com 1.10,2013-06-18 22:57:00,
2013-06-18 18:12:00,76.8,59.0,29.90,NE,51,6.0,9.0,54,0.00,,,0.00,weatherlink.com 1.10,2013-06-18 23:12:00,
2013-06-18 18:27:00,76.3,58.0,29.91,ENE,66,9.0,10.0,53,0.00,,,0.00,weatherlink.com 1.10,2013-06-18 23:27:00,
2013-06-18 18:42:00,75.9,58.0,29.91,ESE,109,4.0,11.0,54,0.00,,,0.00,weatherlink.com 1.10,2013-06-18 23:42:00,
2013-06-18 18:57:00,75.4,57.0,29.91,NE,54,7.0,10.0,53,0.00,,,0.00,weatherlink.com 1.10,2013-06-18 23:57:00,
2013-06-18 19:12:00,74.8,57.0,29.92,NE,50,7.0,10.0,54,0.00,,,0.00,weatherlink.com 1.10,2013-06-19 00:12:00,
2013-06-18 19:27:00,74.0,56.0,29.92,ENE,63,5.0,10.0,54,0.00,,,0.00,weatherlink.com 1.10,2013-06-19 00:27:00,
2013-06-18 19:42:00,72.8,56.0,29.92,NE,50,5.0,9.0,56,0.00,,,0.00,weatherlink.com 1.10,2013-06-19 00:42:00,
2013-06-18 19:57:00,71.4,57.0,29.93,NE,44,6.0,8.0,60,0.00,,,0.00,weatherlink.com 1.10,2013-06-19 00:57:00,
2013-06-18 20:13:00,70.0,57.0,29.94,NE,41,2.0,9.0,63,0.00,,,0.00,weatherlink.com 1.10,2013-06-19 01:13:00,
2013-06-18 20:28:00,68.8,57.0,29.95,ENE,61,3.0,8.0,67,0.00,,,0.00,weatherlink.com 1.10,2013-06-19 01:28:00,
2013-06-18 20:43:00,67.9,57.0,29.96,NE,46,4.0,9.0,69,0.00,,,0.00,weatherlink.com 1.10,2013-06-19 01:43:00,
2013-06-18 20:58:00,67.1,57.0,29.96,NE,48,2.0,6.0,70,0.00,,,0.00,weatherlink.com 1.10,2013-06-19 01:58:00,
2013-06-18 21:13:00,66.3,57.0,29.97,ENE,78,0.0,6.0,72,0.00,,,0.00,weatherlink.com 1.10,2013-06-19 02:13:00,
2013-06-18 21:28:00,65.6,57.0,29.97,North,352,2.0,6.0,73,0.00,,,0.00,weatherlink.com 1.10,2013-06-19 02:28:00,
2013-06-18 21:43:00,65.1,56.0,29.98,ENE,75,3.0,6.0,73,0.00,,,0.00,weatherlink.com 1.10,2013-06-19 02:43:00,
2013-06-18 22:13:00,64.2,55.0,29.99,ENE,58,6.0,8.0,71,0.00,,,0.00,weatherlink.com 1.10,2013-06-19 03:13:00,
2013-06-18 22:28:00,63.8,55.0,29.99,NE,43,2.0,10.0,72,0.00,,,0.00,weatherlink.com 1.10,2013-06-19 03:28:00,
2013-06-18 22:43:00,63.3,55.0,29.99,NE,39,1.0,5.0,74,0.00,,,0.00,weatherlink.com 1.10,2013-06-19 03:43:00,
2013-06-18 22:58:00,63.0,54.0,29.99,NE,56,3.0,6.0,73,0.00,,,0.00,weatherlink.com 1.10,2013-06-19 03:58:00,
2013-06-18 23:13:00,62.8,52.0,29.98,NE,44,3.0,8.0,69,0.00,,,0.00,weatherlink.com 1.10,2013-06-19 04:13:00,
2013-06-18 23:28:00,62.3,53.0,29.99,ENE,60,4.0,5.0,71,0.00,,,0.00,weatherlink.com 1.10,2013-06-19 04:28:00,
2013-06-18 23:43:00,61.7,53.0,29.99,NE,44,1.0,5.0,73,0.00,,,0.00,weatherlink.com 1.10,2013-06-19 04:43:00,
2013-06-18 23:58:00,61.3,53.0,29.99,NE,39,2.0,6.0,73,0.00,,,0.00,weatherlink.com 1.10,2013-06-19 04:58:00,